Location: Kermapucano
(48.0667°N, 3.3000°W)
Time: 20:53:46
(UTC+00:00)

H-2A R/B - Pass Details

Date: 29 November 2020
Orbit: 529 x 651 km, 98.3° (Epoch: 27 January)

Event Time Altitude Azimuth Distance (km) Brightness Sun altitude
Rises 06:32:52 0° 12° (NNE) 2,711 5.8 -10.9°
Reaches altitude 10° 06:35:01 10° 11° (N) 1,804 4.9 -10.6°
Maximum altitude 06:38:52 74° 287° (WNW) 560 2.2 -10.0°
Drops below altitude 10° 06:42:40 10° 202° (SSW) 1,774 4.9 -9.4°
Sets 06:44:46 0° 201° (SSW) 2,661 5.8 -9.0°
